Date String (YYYY-MM-DD hh:mm:ss) UTC,Instrument flags,Ambient pressure (hPa),Sample flow (lpm),Bypass flow (lpm),Sample temperature (°C),Ambient temperature (°C),ASC tube jacket temperature (°C),LED temperature (°C),Box temperature (°C),Sample RH (%),Span deviation,Mass concentration (μg/m³),Mass concentration (μg/m³),Mass concentration (μg/m³)
DateTimeUTC,F1_M11,P_M11,Q1_M11,Q2_M11,T1_M11,T2_M11,T3_M11,T4_M11,T5_M11,U1_M11,ZSPAN_M11,X0_M11,X2_M11,X1_M11
2022-03-11 02:00:00,,0824.4,5.00,0.00,22.2,21.4,00.0,31.2,24.0,06.5,0000.9,0009.08,0006.60,0006.25
2022-03-11 02:01:00,,0824.4,5.00,0.00,22.3,21.7,00.0,31.3,24.0,06.5,0001.1,0009.14,0006.59,0006.24
2022-03-11 02:02:00,,0824.4,4.99,0.00,22.4,22.4,00.0,31.3,24.2,06.5,0001.3,0009.23,0006.63,0006.25
2022-03-11 02:03:00,,0824.5,5.00,0.00,22.5,22.9,00.0,31.3,24.4,06.5,0001.0,0009.11,0006.63,0006.25
2022-03-11 02:04:00,,0824.5,5.00,0.00,22.6,22.8,00.0,31.4,24.5,06.4,0000.5,0009.16,0006.68,0006.26
2022-03-11 02:05:00,,0824.5,5.00,0.00,22.6,22.6,00.0,31.4,24.5,06.4,0000.6,0009.15,0006.69,0006.27
2022-03-11 02:06:00,,0824.5,5.00,0.00,22.6,22.4,00.0,31.4,24.4,06.4,0000.2,0009.14,0006.70,0006.27
2022-03-11 02:07:00,,0824.5,5.00,0.00,22.6,22.3,00.0,31.4,24.4,06.4,0000.7,0009.30,0006.72,0006.28
2022-03-11 02:08:00,,0824.5,5.00,0.00,22.5,22.1,00.0,31.4,24.3,06.4,0000.0,0009.32,0006.76,0006.30
2022-03-11 02:09:00,,0824.5,5.00,0.00,22.5,22.0,00.0,31.4,24.3,06.4,0000.3,0009.30,0006.76,0006.30
2022-03-11 02:10:00,,0824.6,4.99,0.00,22.5,21.8,00.0,31.4,24.2,06.5,0000.0,0009.44,0006.75,0006.30
2022-03-11 02:11:00,,0824.5,5.02,0.00,22.4,21.7,00.0,31.4,24.2,06.5,0000.2,0009.63,0006.76,0006.31
2022-03-11 02:12:00,,0824.6,5.00,0.00,22.4,21.6,00.0,31.4,24.1,06.5,0000.0,0009.87,0006.79,0006.32
2022-03-11 02:13:00,,0824.6,5.00,0.00,22.4,21.6,00.0,31.4,24.1,06.5,0000.0,0010.18,0006.77,0006.30
2022-03-11 02:14:00,,0824.6,4.99,0.00,22.3,21.5,00.0,31.4,24.1,06.6,0000.0,0010.28,0006.77,0006.30
2022-03-11 02:15:00,,0824.6,5.00,0.00,22.3,21.5,00.0,31.3,24.0,06.6,0000.0,0010.21,0006.74,0006.30
2022-03-11 02:16:00,,0824.6,5.01,0.00,22.3,21.5,00.0,31.3,24.0,06.6,0000.0,0010.19,0006.73,0006.31
2022-03-11 02:17:00,,0824.6,5.00,0.00,22.3,21.5,00.0,31.3,24.0,06.6,0000.0,0010.37,0006.74,0006.31
2022-03-11 02:18:00,,0824.6,4.99,0.00,22.3,21.4,00.0,31.3,24.0,06.6,0000.0,0010.64,0006.72,0006.30
2022-03-11 02:19:00,,0824.6,5.00,0.00,22.2,21.4,00.0,31.3,24.0,06.6,0000.0,0010.58,0006.70,0006.28
2022-03-11 02:20:00,,0824.6,5.01,0.00,22.2,21.4,00.0,31.3,23.9,06.6,0000.0,0010.61,0006.71,0006.27
2022-03-11 02:21:00,,0824.7,5.00,0.00,22.3,21.9,00.0,31.3,24.1,06.5,0000.0,0010.46,0006.71,0006.27
2022-03-11 02:22:00,,0824.6,4.99,0.00,22.4,22.6,00.0,31.3,24.3,06.5,0000.0,0010.59,0006.71,0006.27
2022-03-11 02:23:00,,0824.7,5.00,0.00,22.5,22.9,00.0,31.4,24.5,06.5,0000.0,0010.21,0006.70,0006.26
2022-03-11 02:24:00,,0824.7,5.00,0.00,22.6,22.8,00.0,31.4,24.5,06.5,-000.3,0009.86,0006.70,0006.27
2022-03-11 02:25:00,,0824.7,5.00,0.00,22.6,22.6,00.0,31.4,24.4,06.4,-000.4,0009.79,0006.74,0006.29
2022-03-11 02:26:00,,0824.7,5.00,0.00,22.6,22.4,00.0,31.4,24.4,06.5,-000.9,0009.81,0006.76,0006.30
2022-03-11 02:27:00,,0824.6,5.00,0.00,22.5,22.2,00.0,31.4,24.3,06.5,-000.8,0009.86,0006.78,0006.31
2022-03-11 02:28:00,,0824.6,5.00,0.00,22.5,22.0,00.0,31.4,24.2,06.5,-000.9,0009.85,0006.79,0006.31
2022-03-11 02:29:00,,0824.6,5.00,0.00,22.5,21.9,00.0,31.4,24.1,06.5,-001.0,0009.46,0006.79,0006.33
2022-03-11 02:30:00,,0824.7,5.00,0.00,22.4,21.8,00.0,31.4,24.1,06.6,-000.5,0009.46,0006.80,0006.34
2022-03-11 02:31:00,,0824.6,5.01,0.00,22.4,21.7,00.0,31.4,24.1,06.6,-000.1,0009.42,0006.79,0006.35
2022-03-11 02:32:00,,0824.6,5.00,0.00,22.3,21.6,00.0,31.4,24.0,06.6,0000.1,0009.49,0006.83,0006.39
2022-03-11 02:33:00,,0824.6,5.00,0.00,22.3,21.5,00.0,31.4,24.0,06.6,0000.4,0009.32,0006.83,0006.42
2022-03-11 02:34:00,,0824.7,4.99,0.00,22.3,21.5,00.0,31.3,24.0,06.6,0001.5,0009.58,0006.85,0006.45
2022-03-11 02:35:00,,0824.8,5.00,0.00,22.3,21.4,00.0,31.3,24.0,06.6,0002.0,0009.98,0006.89,0006.48
2022-03-11 02:36:00,,0824.9,5.01,0.00,22.3,21.4,00.0,31.3,24.0,06.6,0002.3,0009.99,0006.90,0006.50
2022-03-11 02:37:00,,0824.9,5.01,0.00,22.2,21.4,00.0,31.3,24.0,06.6,0002.6,0009.96,0006.91,0006.53
2022-03-11 02:38:00,,0824.9,4.98,0.00,22.3,21.9,00.0,31.3,24.1,06.6,0002.3,0010.10,0006.96,0006.56
2022-03-11 02:39:00,,0824.9,5.01,0.00,22.4,22.6,00.0,31.4,24.3,06.5,0001.5,0010.19,0007.01,0006.59
2022-03-11 02:40:00,,0825.0,4.99,0.00,22.5,23.0,00.0,31.4,24.5,06.5,0001.8,0010.25,0007.07,0006.62
2022-03-11 02:41:00,,0825.0,5.02,0.00,22.6,22.8,00.0,31.4,24.5,06.5,0002.8,0010.29,0007.08,0006.64
2022-03-11 02:42:00,,0825.0,5.00,0.00,22.6,22.6,00.0,31.4,24.5,06.5,0002.3,0010.75,0007.14,0006.68
2022-03-11 02:43:00,,0825.1,4.99,0.00,22.6,22.4,00.0,31.4,24.4,06.5,0001.8,0010.95,0007.15,0006.69
2022-03-11 02:44:00,,0825.1,5.01,0.00,22.6,22.3,00.0,31.4,24.4,06.4,0000.4,0011.12,0007.20,0006.71
2022-03-11 02:45:00,,0825.1,5.00,0.00,22.5,22.1,00.0,31.4,24.3,06.4,0000.0,0010.87,0007.26,0006.76
2022-03-11 02:46:00,,0825.1,5.00,0.00,22.5,22.0,00.0,31.4,24.3,06.4,0000.0,0010.61,0007.26,0006.76
2022-03-11 02:47:00,,0825.1,5.00,0.00,22.5,21.9,00.0,31.4,24.3,06.3,0000.0,0010.53,0007.24,0006.76
2022-03-11 02:48:00,,0825.1,5.00,0.00,22.5,21.8,00.0,31.4,24.2,06.3,0000.0,0010.64,0007.22,0006.73
2022-03-11 02:49:00,,0825.2,5.01,0.00,22.4,21.7,00.0,31.4,24.2,06.3,-000.1,0010.52,0007.15,0006.69
2022-03-11 02:50:00,,0825.2,5.00,0.00,22.4,21.7,00.0,31.4,24.2,06.3,0000.3,0010.42,0007.08,0006.65
2022-03-11 02:51:00,,0825.1,4.99,0.00,22.4,21.6,00.0,31.4,24.1,06.3,0000.3,0010.36,0007.03,0006.61
2022-03-11 02:52:00,,0825.1,5.00,0.00,22.4,21.6,00.0,31.4,24.1,06.2,0001.2,0010.27,0006.99,0006.57
2022-03-11 02:53:00,,0825.2,5.01,0.00,22.4,21.5,00.0,31.4,24.1,06.2,0000.5,0009.88,0006.91,0006.52
2022-03-11 02:54:00,,0825.2,4.99,0.00,22.3,21.5,00.0,31.4,24.0,06.2,0000.7,0010.09,0006.86,0006.46
2022-03-11 02:55:00,,0825.2,4.99,0.00,22.3,21.6,00.0,31.4,24.0,06.2,0002.9,0009.93,0006.78,0006.38
2022-03-11 02:56:00,,0825.3,5.00,0.00,22.4,22.2,00.0,31.4,24.2,06.2,0003.3,0009.82,0006.69,0006.29
2022-03-11 02:57:00,,0825.2,5.01,0.00,22.5,22.8,00.0,31.4,24.4,06.1,0003.0,0009.76,0006.67,0006.28
2022-03-11 02:58:00,,0825.2,5.00,0.00,22.6,22.9,00.0,31.5,24.5,06.1,0003.2,0009.85,0006.68,0006.27
2022-03-11 02:59:00,,0825.2,4.99,0.00,22.6,22.7,00.0,31.5,24.5,06.0,0003.1,0009.86,0006.71,0006.29
